OBJECT G

Satellite information

Favourite Embed

Satellite Type and Status

UNKNOWNIN ORBIT

Key statistics

Satellite OBJECT G at a glance.

Uptime

848

Days in orbit

Revolutions

≈ 15.2

Per day

Orbit

SSO

Sun Synchronous Orbit

Inclination

97.5

Latest

Satellite identification and parameters

Extended collection of information and parameters for OBJECT G.

Object identification

Identified? True

Debris? False

Object name: OBJECT G

International designator: 2023-091G

Object number (NORAD): 57172

Object ID (CCSDS): 57172

Country: TO BE DETERMINED/UNKNOWN (TBD)

Current information (Y/N): Y

RCS size: SMALL

Orbital parameters

Period: 94.915 minutes

Inclination: 97.542 deg

SMA: 6892.622 km

Apoapsis: 523.319 km

Periapsis: 505.655 km

RAAN: 349.4937 deg

Eccentricy: 0.0012814

Argument of periapsis: 225.168 deg

Mean anomaly: 134.8512 deg

Mean motion: 15.17141423 rev/day

Mean motion (dot): 0.00008969 rev/day2

B* drag term: 0.00045439 1/REarth

Two-line elements (TLE)

Creation date: Oct. 22, 2025, 12:06 a.m.

Reference frame: TEME

Reference center: EARTH

Epoch: Oct. 21, 2025, 6:53 p.m. UTC

TLE line 0: 0 OBJECT G

TLE line 1: 1 57172U 23091G 25294.78680623 .00008969 00000-0 45439-3 0 9999

TLE line 2: 2 57172 97.5420 349.4937 0012814 225.1680 134.8512 15.17141423127812

Live tracking on map

Real-time ground track for satellite OBJECT G.

In-orbit conjunctions

There are no conjunctions computed for OBJECT G, at the moment. Check back to stay up to date, as we update our databases every day.

Go to all conjunctions

Associated space launch

Meteor-M satellites are a new generation of Russian meteorological satellites to replace the Meteor-3M series. The first two Meteor-M satellites will feature following instruments: - MSU-MR - Low-resolution Multispectral Scanner for global and regional for cloud cover mapping - KMSS-2 - multichannel scanning unit for Earth surface monitoring - MTVZA-GYa - imager/sounder for Atmospheric temperature and humidity profiles, sea surface wind - IKFS-2 advanced IR sounder for Atmospheric temperature and humidity profiles - BRK SSPD - Data Collection System - RK-SM-MKA - Modified Rescue Radio complex One initial Meteor-M 1 satellite was built, followed by the improved Meteor-M 2 series satellites. 42 cubesats from various Russian and international organizations will be launched as co-passengers.

OBJECT G was lifted into orbit during the mission ‘Soyuz 2.1b/Fregat-M | Meteor-M No.2-3 & others’, on board a Soyuz 2.1b/Fregat-M space rocket.

The launch took place on June 27, 2023, 11:34 a.m. from Cosmodrome Site 1S.

For more information about the launch, click the button.

Launch to space Soyuz 2.1b/Fregat-M | Meteor-M No.2-3 & others
Soyuz 2.1b/Fregat-M | Meteor-M No.2-3 & others

Agency: N/A

Status: Launch Successful

Launch date: June 27, 2023, 11:34 a.m. UTC

Rocket: Soyuz 2.1b/Fregat-M

Launch pad: Cosmodrome Site 1S

Location: Vostochny Cosmodrome, Siberia, Russian Federation

...

Latest news about this satellite

News about space launch
Launch Roundup: Virgin Galactic performs crewed suborbital mission; SpaceX launches Euclid

Four launches are planned for the week of June 24 to July 1. The Russians opened the launches, with a Meteor weather satellite riding a Soyuz rocket on Tuesday, June 27, while Virgin Galactic flew its Galactic 01 crewed suborbital mission Thursday, June 2...


Newsletter sign-up

Weekly statistics, charts and insights to help you stay on top of the space industry.